Observations for Trim Market St
| Time | AQI | Temp °C | Hum % | Pres Pa | CO μg/m³ | H₂S μg/m³ | NO μg/m³ | NO₂ μg/m³ | O₃ μg/m³ | SO₂ μg/m³ | PM1 μg/m³ | PM2.5 μg/m³ | PM10 μg/m³ |
|---|---|---|---|---|---|---|---|---|---|---|---|---|---|
| Tuesday 14 July 2026 | |||||||||||||
| 03:30 | 1 | 16.8 | 73 | 51,607 | 0.11 | 0 | 0 | 4.96 | 22.43 | 0 | 1.43 | 2.44 | 4.48 |
| 03:26 | 1 | 16.8 | 72 | 52,097 | 0.11 | 0 | 0 | 5.89 | 21.38 | 0 | 2.14 | 3.91 | 6.31 |
| 03:21 | 1 | 16.8 | 72 | 52,714 | 0.1 | 0 | 0 | 4.72 | 21.08 | 0 | 2.14 | 3.43 | 5.69 |
| 03:16 | 1 | 16.8 | 72 | 53,120 | 0.11 | 0 | 0 | 4.54 | 21.91 | 0 | 2.85 | 3.44 | 6.3 |
| 03:15 | 1 | 16.8 | 72 | 53,170 | 0.09 | 0 | 0 | 5.94 | 19.83 | 0 | 2.14 | 3.93 | 6.3 |
| 03:14 | 1 | 16.9 | 72 | 53,244 | 0.11 | 0 | 0 | 4.22 | 20.53 | 0 | 2.14 | 4.41 | 6.91 |
| 03:13 | 1 | 16.9 | 72 | 53,280 | 0.1 | 0 | 0 | 5.42 | 20.86 | 0 | 1.43 | 3.45 | 5.68 |
| 03:12 | 1 | 16.9 | 72 | 53,349 | 0.1 | 0 | 0 | 4.72 | 20.72 | 0 | 1.43 | 2.96 | 5.68 |
| 03:11 | 1 | 16.9 | 72 | 53,380 | 0.09 | 0 | 0 | 5.24 | 21.14 | 0 | 1.43 | 2.49 | 4.45 |
| 03:10 | 1 | 16.9 | 72 | 53,433 | 0.1 | 0 | 0 | 5.44 | 19.69 | 0 | 2.14 | 3.45 | 5.68 |
| 03:09 | 1 | 16.9 | 72 | 53,451 | 0.1 | 0 | 0.66 | 4.84 | 20.39 | 0 | 1.43 | 2.97 | 6.91 |
| 03:07 | 1 | 16.9 | 72 | 53,565 | 0.09 | 0 | 0 | 5.15 | 19.68 | 0 | 1.43 | 2.97 | 5.68 |
| 03:05 | 1 | 16.9 | 72 | 53,743 | 0.08 | 0 | 0 | 6.06 | 21.49 | 0 | 2.85 | 3.95 | 6.91 |
| 03:01 | 1 | 16.9 | 71 | 54,116 | 0.08 | 0 | 0 | 6.29 | 22.55 | 0 | 2.14 | 3.96 | 6.91 |
| 02:58 | 1 | 16.9 | 71 | 54,487 | 0.1 | 0 | 0 | 7.03 | 24.65 | 0 | 2.85 | 3.98 | 7.53 |
| 02:55 | 1 | 16.9 | 71 | 54,835 | 0.09 | 0 | 0 | 5.24 | 19.68 | 0 | 1.43 | 3.5 | 6.91 |
| 02:52 | 1 | 17 | 71 | 55,059 | 0.09 | 0 | 0 | 5.22 | 20.04 | 0 | 2.14 | 3.5 | 5.66 |
| 02:46 | 1 | 17.1 | 70 | 55,248 | 0.08 | 0 | 0 | 4.23 | 19.19 | 0 | 1.43 | 3.52 | 6.28 |
| 02:45 | 1 | 17.1 | 70 | 55,270 | 0.08 | 0 | 0 | 4.64 | 20.06 | 0 | 1.43 | 4.01 | 6.28 |
| 02:44 | 1 | 17.1 | 70 | 55,298 | 0.09 | 0 | 0 | 4.44 | 20.44 | 0 | 2.14 | 3.52 | 6.28 |